Wetbulb
54.53 59.26 67.13 70.13 69.12 68.97 69.49 69.13 69.47 69.63 69.80 68.28 69.61 69.60 69.34 69.58 69.52 69.53 70.01 64.64 64.57 67.77 70.53 71.20 70.21 69.64 69.61 68.63 68.32 67.81 67.64 68.05 67.95 67.42 67.28 66.65 66.34 66.25 65.90 65.90 65.50 65.01 64.72
52.03 55.78 58.84 66.39 68.26 68.61 68.63 68.84 68.30 68.37 68.33 67.14 67.33 69.29 69.03 69.08 69.21 69.32 69.70 69.32 63.55 65.79 68.64 70.57 70.69 70.21 69.49 68.70 67.88 67.30 67.21 67.56 67.90 67.74 66.99 66.19 65.94 65.79 65.14 64.95 64.88 64.55 64.45
50.64 51.55 53.75 59.02 65.30 67.86 68.19 68.13 68.19 68.87 67.56 66.36 66.51 68.49 68.93 68.79 68.38 68.66 69.25 69.43 67.73 63.04 65.03 67.76 69.13 69.39 69.14 68.46 67.48 67.06 66.77 66.96 67.18 67.38 66.70 66.01 65.50 65.19 64.81 63.99 63.61 63.85 64.12
47.56 49.14 50.93 53.98 61.96 66.34 67.72 67.10 66.50 66.34 65.88 65.68 65.10 67.43 68.02 68.58 68.20 68.38 69.16 69.26 69.20 68.83 64.83 64.90 66.68 67.71 67.81 68.36 67.81 67.30 67.01 66.73 66.60 66.41 66.20 65.56 65.25 64.66 64.08 63.15 62.77 62.84 62.97
46.56 47.21 48.57 52.54 56.15 56.60 64.83 66.57 65.74 65.47 64.54 64.74 64.70 66.45 67.73 67.79 67.73 67.56 68.37 68.90 69.03 69.00 68.75 64.08 64.27 64.61 65.74 66.96 67.85 67.53 67.35 67.07 67.01 66.71 66.19 65.96 65.28 64.59 63.79 63.18 62.75 62.44 62.41
45.30 46.25 47.53 49.33 51.03 53.07 54.63 65.30 65.10 65.07 64.59 64.66 64.15 65.23 67.02 67.54 67.72 67.48 67.55 68.46 68.63 68.60 68.90 68.80 67.90 66.86 62.99 65.50 66.83 67.81 67.71 67.60 66.89 66.81 66.60 66.16 65.47 64.65 63.84 62.98 62.61 62.29 62.25
43.70 44.16 46.12 48.94 50.59 52.08 54.44 62.02 64.81 63.29 63.47 64.45 63.20 63.46 64.52 66.66 66.94 67.40 67.88 68.12 68.03 67.62 67.76 68.23 68.04 67.65 66.36 63.39 65.61 67.47 67.87 67.89 67.61 67.32 66.71 65.86 64.85 64.15 63.47 62.74 62.37 62.19 62.22
42.85 42.69 44.74 46.59 50.71 54.38 55.63 57.80 63.42 62.07 62.14 64.26 61.53 62.35 59.49 60.86 62.75 64.61 67.07 67.49 67.81 67.41 65.75 66.98 67.33 67.43 67.40 67.37 66.65 65.45 67.21 67.93 68.00 67.45 66.46 65.45 64.57 63.86 63.20 62.48 62.24 62.35 62.15
43.82 43.54 43.55 46.08 49.15 52.02 53.58 55.76 60.12 56.73 54.11 59.88 63.68 62.83 58.71 56.87 61.16 63.63 63.95 65.36 66.65 66.89 66.72 66.45 66.76 66.94 67.28 67.50 65.45 64.17 61.09 62.20 65.64 66.75 66.07 65.60 64.88 64.08 63.18 62.52 62.32 62.39 62.20
43.34 44.50 45.26 44.75 45.40 48.47 52.40 56.49 59.22 58.52 57.89 56.37 60.55 63.86 65.09 63.63 59.24 59.01 62.41 64.16 66.09 65.88 66.58 65.78 65.64 66.12 66.66 66.96 64.44 61.17 57.74 57.62 60.36 64.68 65.88 65.62 65.32 64.59 63.71 62.61 62.45 62.26 62.35
43.09 45.25 46.03 46.06 45.36 48.54 50.77 53.84 56.52 59.71 58.24 60.10 57.99 61.15 63.16 62.70 63.04 61.09 58.40 60.08 62.99 65.42 66.49 66.35 65.80 65.60 65.91 66.63 66.87 63.53 55.96 54.99 56.62 60.84 63.65 64.97 65.28 65.03 64.28 63.25 62.69 62.46 62.44
40.99 43.50 45.67 46.98 46.85 48.58 51.00 54.55 58.41 61.03 61.33 60.47 60.24 61.35 61.06 60.87 60.11 61.16 60.30 61.21 60.51 62.52 65.18 66.14 65.66 65.61 65.98 66.04 64.16 58.71 54.63 53.16 54.03 57.45 60.39 62.71 64.01 64.55 64.61 63.89 63.36 63.00 62.78
38.93 40.78 43.21 46.45 47.81 50.11 52.13 55.54 57.11 59.06 61.94 61.31 60.11 58.30 62.45 63.31 63.21 62.45 61.53 60.50 60.58 62.95 62.22 64.96 65.59 65.95 65.92 66.30 65.81 58.06 54.98 51.91 52.41 54.31 56.88 59.06 60.90 62.17 62.90 63.55 63.53 63.40 63.20
37.15 40.34 42.65 44.34 47.17 50.55 52.99 54.64 57.22 58.06 61.52 60.06 58.98 58.33 59.59 62.64 63.28 62.83 61.67 60.78 58.32 59.77 61.32 62.05 64.36 65.45 66.09 66.55 64.63 54.55 63.62 51.17 50.98 51.87 53.42 55.32 57.16 58.50 59.14 60.68 61.66 62.05 62.24
36.55 38.91 41.07 44.00 49.79 51.52 52.78 53.77 56.91 58.00 60.49 59.46 58.70 58.79 59.71 61.66 62.74 62.70 62.99 63.16 61.48 57.26 58.13 61.33 61.24 64.03 65.47 65.95 63.60 65.49 64.72 55.08 50.44 50.08 50.60 52.18 54.57 55.98 56.84 57.84 58.36 59.54 60.32
34.64 36.54 37.97 40.68 42.88 44.91 47.07 51.07 53.69 58.28 59.67 60.67 59.70 59.06 58.94 60.89 60.39 62.24 62.07 62.93 63.62 61.06 57.56 61.90 60.89 62.69 64.30 64.35 62.63 65.17 65.60 56.12 49.90 48.65 48.46 49.17 50.77 53.00 54.33 54.86 56.00 56.64 57.78
33.12 34.43 35.48 36.82 39.37 40.89 42.58 47.50 52.67 55.25 57.44 57.66 56.33 58.49 58.38 55.76 54.17 60.37 61.42 62.06 61.81 62.49 59.36 61.39 63.16 63.58 63.27 64.10 63.55 63.53 64.67 64.17 62.53 48.63 47.54 47.72 47.90 48.97 50.06 50.97 52.00 53.41 54.68
32.25 32.38 33.58 33.75 35.03 36.83 39.04 39.71 40.33 41.23 42.73 42.39 43.30 44.56 46.30 49.41 48.09 46.32 52.74 60.34 61.12 61.91 60.51 59.69 60.41 61.02 62.06 63.78 63.94 62.85 63.10 63.54 63.46 53.36 48.27 47.16 47.14 47.00 47.92 48.46 48.83 49.55 50.80
30.98 31.33 31.64 32.17 32.35 33.32 34.22 35.80 36.65 37.04 37.90 38.41 38.91 38.55 38.79 41.26 40.81 41.70 41.24 44.37 47.92 54.51 60.79 60.53 59.59 60.21 60.27 61.07 62.36 61.97 62.66 63.09 63.14 55.13 47.88 46.42 46.25 46.60 46.63 46.24 46.25 46.98 47.92
28.71 30.19 30.41 30.69 31.62 31.82 32.35 32.00 32.18 33.03 33.52 34.33 36.08 36.56 36.24 37.28 37.64 38.23 37.01 38.60 41.97 46.19 50.02 53.73 58.49 57.20 55.31 52.23 51.31 49.38 57.74 55.92 59.79 59.87 56.26 52.48 49.26 47.12 46.24 45.71 45.49 46.02 46.44
27.35 28.70 29.46 29.57 30.22 30.95 31.48 31.08 30.32 29.31 29.37 30.52 31.45 33.00 34.89 35.78 35.20 34.80 34.55 34.17 37.10 37.88 40.84 41.86 42.86 43.04 38.82 38.23 37.89 38.93 43.01 43.75 47.56 44.23 48.09 54.25 55.55 56.70 54.13 46.18 48.06 45.75 45.13
25.52 27.34 28.16 28.61 28.52 29.87 31.80 31.04 30.00 29.28 28.08 27.34 27.31 29.08 30.80 31.98 32.48 32.39 32.28 32.46 31.81 32.88 33.18 34.80 34.47 33.93 32.57 33.49 35.06 37.76 38.91 40.02 44.27 40.19 40.28 44.84 50.73 52.84 48.26 44.10 41.04 41.24 41.87
24.58 25.21 25.72 27.30 26.63 27.65 29.56 29.67 28.73 26.96 26.41 26.94 26.51 27.13 27.36 29.27 30.09 30.21 30.22 29.86 30.48 31.30 29.61 30.57 29.80 29.22 30.13 29.76 31.22 33.64 35.37 36.41 37.48 36.01 35.73 40.60 41.70 45.21 43.42 41.17 39.40 39.57 39.75
23.12 22.76 23.98 25.20 26.65 27.00 26.87 27.38 27.03 26.48 25.91 25.75 26.69 26.89 26.66 27.20 28.56 29.35 30.11 29.26 28.57 28.95 29.49 29.71 29.05 28.59 28.95 30.26 30.45 31.50 31.96 32.77 35.08 33.27 32.58 34.46 37.72 38.49 40.67 40.23 37.24 38.22 38.23
23.97 23.38 22.43 22.55 23.14 25.08 25.62 24.81 25.28 24.34 23.92 23.48 24.64 25.67 26.36 26.44 26.96 27.77 27.18 26.85 26.80 26.97 29.98 29.84 29.75 29.31 29.34 29.30 29.75 31.35 29.04 30.60 32.59 32.32 28.03 29.57 34.87 35.23 37.59 38.13 38.16 35.58 36.18
23.64 24.77 23.08 22.32 23.09 22.20 24.64 24.14 23.37 23.66 21.99 21.57 22.10 22.86 24.07 24.70 24.98 24.81 23.89 22.90 21.88 23.15 24.62 26.12 26.56 27.15 27.65 28.05 27.58 29.22 29.61 28.26 29.19 31.30 28.73 30.20 32.15 32.87 33.78 37.41 38.31 38.13 37.97
MSLP
1014.54 1013.68 1012.49 1011.81 1011.74 1012.05 1012.01 1012.04 1012.12 1012.27 1012.40 1012.87 1012.97 1013.17 1013.13 1013.30 1013.45 1013.58 1013.78 1014.27 1014.56 1014.61 1014.68 1014.87 1015.32 1015.68 1016.01 1016.35 1016.88 1017.35 1017.98 1018.54 1018.85 1019.30 1019.70 1019.99 1020.26 1020.52 1020.82 1021.13 1021.46 1021.78 1022.07
1014.73 1013.85 1012.95 1011.98 1011.23 1011.24 1011.41 1011.33 1011.44 1011.61 1011.88 1012.30 1012.59 1012.73 1012.72 1012.72 1012.99 1013.33 1013.40 1013.53 1014.04 1014.26 1014.35 1014.56 1014.90 1015.21 1015.68 1016.12 1016.55 1017.06 1017.65 1018.25 1018.50 1018.96 1019.38 1019.75 1020.24 1020.51 1020.77 1021.04 1021.38 1021.65 1021.91
1014.79 1014.09 1013.10 1012.15 1011.26 1010.63 1010.50 1010.71 1010.93 1011.08 1011.20 1011.72 1011.98 1012.22 1012.35 1012.36 1012.42 1012.77 1012.99 1013.12 1013.30 1013.90 1014.16 1014.39 1014.63 1014.92 1015.33 1015.83 1016.30 1016.77 1017.29 1017.87 1018.16 1018.66 1019.07 1019.50 1019.92 1020.30 1020.58 1020.81 1021.09 1021.43 1021.80
1014.90 1014.05 1013.00 1012.07 1011.14 1010.31 1010.00 1010.17 1010.23 1010.58 1010.79 1010.92 1011.42 1011.41 1011.68 1011.87 1011.88 1012.05 1012.43 1012.65 1012.82 1013.00 1013.78 1014.06 1014.38 1014.67 1015.04 1015.49 1016.02 1016.45 1016.90 1017.34 1017.73 1018.26 1018.72 1019.17 1019.51 1019.91 1020.27 1020.54 1020.68 1021.15 1021.52
1014.63 1014.03 1012.94 1011.75 1011.29 1010.71 1009.71 1009.43 1009.56 1009.63 1010.12 1010.33 1010.65 1010.99 1010.99 1011.01 1011.35 1011.37 1011.78 1012.18 1012.42 1012.60 1012.73 1013.54 1013.96 1014.37 1014.71 1015.09 1015.51 1016.00 1016.42 1016.95 1017.30 1017.70 1018.18 1018.65 1019.05 1019.41 1019.78 1020.20 1020.49 1020.83 1021.30
1014.27 1013.66 1012.64 1011.79 1011.24 1010.52 1009.85 1008.64 1008.77 1009.20 1008.91 1009.56 1010.04 1010.08 1010.60 1010.55 1010.76 1010.76 1011.09 1011.46 1011.82 1012.28 1012.50 1012.72 1013.45 1013.89 1014.41 1014.69 1015.04 1015.45 1015.84 1016.36 1016.83 1017.26 1017.69 1018.11 1018.52 1018.90 1019.33 1019.68 1020.09 1020.39 1020.87
1013.80 1013.12 1012.19 1011.31 1010.68 1009.88 1009.24 1008.59 1007.71 1008.09 1008.10 1008.37 1009.41 1009.71 1010.11 1010.18 1010.29 1010.20 1010.65 1010.92 1011.22 1011.76 1012.06 1012.31 1012.60 1012.93 1013.74 1014.31 1014.57 1014.94 1015.22 1015.59 1016.13 1016.69 1017.16 1017.58 1018.01 1018.39 1018.77 1019.18 1019.55 1019.93 1020.34
1012.97 1012.41 1011.61 1010.80 1010.04 1008.96 1008.67 1007.99 1007.13 1007.15 1007.57 1007.75 1008.21 1008.69 1009.24 1009.81 1009.92 1009.82 1009.84 1010.36 1010.76 1011.09 1011.76 1011.66 1012.07 1012.37 1012.70 1013.24 1013.71 1014.29 1014.58 1014.84 1015.36 1015.94 1016.50 1017.05 1017.51 1017.93 1018.32 1018.76 1019.15 1019.53 1019.91
1012.30 1011.50 1011.01 1010.30 1009.39 1008.86 1008.10 1007.41 1006.63 1006.86 1007.54 1007.20 1006.92 1006.89 1007.40 1007.25 1007.94 1008.78 1009.09 1009.57 1010.16 1010.57 1010.94 1011.17 1011.41 1011.70 1012.18 1012.49 1013.00 1013.81 1014.27 1014.50 1014.73 1015.21 1015.73 1016.35 1016.81 1017.28 1017.76 1018.18 1018.62 1019.00 1019.43
1011.41 1010.64 1009.84 1009.39 1009.03 1008.68 1007.59 1006.68 1006.10 1005.80 1006.10 1005.97 1006.90 1006.83 1006.18 1005.99 1006.40 1007.39 1008.23 1008.67 1009.16 1009.71 1010.08 1010.53 1010.94 1011.09 1011.47 1011.91 1012.31 1012.67 1013.42 1014.06 1014.36 1014.65 1015.09 1015.59 1016.11 1016.50 1017.02 1017.52 1017.96 1018.37 1018.77
1010.55 1009.61 1009.00 1008.25 1008.08 1007.74 1006.95 1006.24 1005.39 1004.71 1005.12 1004.94 1005.59 1005.68 1006.37 1006.43 1005.80 1005.75 1006.67 1007.81 1008.53 1008.54 1008.97 1009.60 1009.91 1010.25 1010.75 1011.10 1011.52 1011.92 1012.76 1013.31 1013.77 1014.18 1014.54 1014.79 1015.20 1015.69 1016.16 1016.59 1017.11 1017.65 1018.05
1010.07 1009.11 1008.24 1007.38 1006.91 1006.72 1005.78 1004.98 1004.46 1003.77 1003.75 1004.31 1004.23 1004.78 1005.54 1005.63 1004.83 1005.05 1005.55 1006.19 1006.53 1007.47 1008.06 1008.70 1009.17 1009.32 1009.79 1010.22 1010.70 1011.10 1011.82 1012.47 1013.03 1013.52 1013.89 1014.20 1014.40 1014.76 1015.24 1015.76 1016.26 1016.72 1017.18
1009.81 1008.74 1007.93 1006.72 1005.89 1005.42 1004.76 1004.02 1003.62 1003.50 1002.81 1003.08 1003.50 1004.34 1004.42 1004.48 1004.01 1004.28 1004.85 1005.64 1005.76 1006.42 1007.58 1007.87 1008.29 1008.46 1008.77 1009.31 1009.67 1010.48 1011.12 1011.70 1012.22 1012.72 1013.21 1013.57 1013.91 1014.21 1014.52 1014.82 1015.25 1015.78 1016.25
1010.21 1008.71 1007.28 1005.99 1005.01 1004.41 1003.92 1003.51 1002.89 1002.65 1002.29 1002.23 1002.71 1002.64 1003.94 1003.90 1003.50 1003.92 1004.10 1004.64 1005.40 1005.82 1006.42 1006.53 1007.41 1007.58 1007.76 1008.21 1008.55 1009.44 1009.91 1010.74 1011.19 1011.79 1012.33 1012.78 1013.13 1013.40 1013.73 1014.10 1014.42 1014.83 1015.26
1010.27 1008.54 1006.98 1005.30 1003.80 1003.49 1003.51 1003.14 1002.34 1001.77 1001.75 1001.49 1001.62 1002.40 1003.01 1003.21 1003.31 1003.67 1003.74 1003.71 1003.67 1004.61 1005.23 1005.95 1006.40 1006.91 1007.16 1007.57 1008.01 1008.59 1009.07 1009.53 1010.30 1010.75 1011.25 1011.74 1012.19 1012.51 1012.74 1013.09 1013.51 1013.88 1014.26
1010.55 1008.86 1007.30 1005.90 1004.88 1004.22 1003.87 1003.17 1002.33 1001.49 1001.47 1000.98 1000.84 1001.71 1002.18 1002.73 1003.80 1003.55 1003.55 1003.51 1003.35 1003.53 1004.19 1004.73 1005.52 1005.90 1006.43 1006.86 1007.14 1007.78 1008.06 1008.75 1009.45 1010.04 1010.49 1010.98 1011.36 1011.68 1011.95 1012.21 1012.54 1012.93 1013.25
1011.29 1009.29 1008.22 1007.03 1005.99 1005.22 1004.31 1003.27 1002.40 1002.00 1001.89 1001.74 1001.73 1002.21 1002.85 1002.60 1002.63 1003.38 1002.54 1003.41 1003.30 1003.29 1003.61 1004.27 1004.63 1005.24 1005.82 1006.16 1006.74 1007.19 1007.40 1008.08 1008.38 1009.07 1009.58 1010.02 1010.53 1010.85 1011.13 1011.45 1011.59 1011.92 1012.32
1011.72 1010.56 1009.44 1008.34 1007.52 1006.45 1006.01 1004.98 1004.20 1004.02 1003.83 1003.71 1003.43 1003.43 1003.92 1003.65 1003.70 1004.46 1003.82 1003.21 1003.35 1003.21 1003.31 1003.74 1004.49 1004.85 1005.13 1005.58 1005.95 1006.44 1006.83 1007.33 1007.72 1008.04 1008.68 1009.17 1009.55 1010.05 1010.35 1010.66 1011.00 1011.02 1011.20
1012.70 1011.76 1011.01 1010.00 1009.20 1008.56 1007.74 1007.07 1006.60 1006.59 1006.48 1006.26 1006.06 1005.79 1005.82 1005.65 1005.14 1004.37 1004.67 1004.06 1004.29 1004.24 1003.72 1003.50 1004.34 1004.85 1005.16 1005.62 1005.84 1006.22 1006.41 1006.94 1007.17 1007.58 1008.07 1008.51 1008.94 1009.36 1009.89 1010.03 1010.41 1010.69 1010.65
1014.62 1013.61 1012.95 1012.20 1011.30 1010.44 1009.62 1009.15 1008.76 1008.72 1008.71 1008.90 1008.54 1007.68 1006.96 1006.50 1005.85 1006.32 1006.03 1005.82 1005.55 1005.48 1005.23 1004.58 1004.77 1005.47 1005.86 1006.74 1007.03 1007.49 1007.02 1007.37 1007.36 1007.46 1007.51 1007.54 1008.32 1008.61 1009.08 1009.30 1009.68 1009.92 1010.01
1016.47 1015.67 1014.80 1013.96 1013.39 1011.93 1011.82 1011.41 1011.01 1010.92 1010.63 1010.67 1010.84 1010.29 1009.28 1008.79 1008.37 1008.22 1006.96 1007.36 1006.19 1007.35 1007.06 1006.25 1006.95 1007.48 1008.80 1009.02 1009.36 1009.28 1009.00 1009.00 1009.10 1009.35 1008.45 1007.91 1008.18 1007.97 1008.41 1008.78 1009.11 1009.23 1009.23
1018.30 1017.61 1016.91 1016.25 1014.52 1013.95 1013.86 1013.41 1012.70 1012.41 1012.66 1012.85 1013.25 1012.11 1011.06 1010.22 1010.34 1009.68 1009.16 1009.26 1009.44 1009.77 1008.77 1008.77 1009.67 1010.26 1010.76 1011.03 1010.49 1010.78 1010.50 1009.51 1009.57 1009.91 1010.63 1009.13 1008.61 1008.28 1008.87 1009.29 1009.43 1008.91 1008.80
1020.31 1019.34 1018.26 1017.14 1016.41 1016.49 1015.66 1015.54 1014.88 1014.21 1013.94 1014.42 1014.10 1014.37 1011.50 1012.75 1011.74 1011.63 1011.61 1011.01 1010.88 1011.47 1012.07 1011.54 1011.62 1011.60 1012.30 1012.31 1011.25 1011.79 1012.83 1010.76 1011.03 1011.55 1011.37 1009.72 1009.72 1008.93 1009.30 1009.52 1009.44 1009.36 1009.38
1021.77 1021.00 1020.27 1019.68 1018.84 1018.63 1018.53 1017.39 1016.36 1014.45 1016.29 1015.66 1015.86 1015.59 1014.39 1014.33 1014.39 1013.74 1012.82 1012.55 1013.26 1012.78 1012.76 1013.41 1013.05 1013.50 1012.99 1013.29 1013.20 1013.30 1012.62 1011.46 1010.44 1012.00 1012.31 1010.63 1010.30 1010.09 1010.12 1009.89 1009.86 1009.62 1009.70
1022.69 1022.51 1022.32 1021.30 1020.35 1020.02 1019.33 1018.02 1017.11 1017.12 1016.84 1017.10 1017.07 1016.26 1015.95 1016.54 1016.60 1015.55 1014.79 1015.01 1015.28 1014.79 1014.74 1014.63 1014.77 1014.51 1014.49 1014.17 1013.88 1012.75 1012.05 1012.01 1011.97 1013.06 1013.30 1012.59 1011.26 1010.86 1010.08 1009.96 1010.07 1010.13 1010.08
1023.69 1023.35 1022.96 1022.53 1022.07 1021.25 1020.46 1020.03 1018.85 1018.24 1018.01 1018.07 1018.24 1018.63 1019.03 1019.53 1018.72 1018.13 1017.21 1017.11 1017.51 1016.80 1016.38 1015.51 1015.52 1015.53 1015.23 1015.20 1014.93 1014.26 1013.68 1013.47 1014.12 1013.68 1014.35 1013.55 1012.51 1012.50 1010.92 1010.39 1010.52 1010.46 1010.37
Wind_Speed
9 8 9 8 7 6 10 10 11 11 12 12 12 13 13 12 11 7 6 10 10 13 15 17 17 18 19 18 19 21 19 18 18 18 15 13 13 13 12 12 14 16 16
10 11 9 9 8 8 9 10 12 10 12 11 12 14 14 12 12 11 8 8 10 11 11 12 17 19 19 18 19 19 17 19 19 18 17 15 13 12 12 13 14 14 16
12 13 11 10 9 9 12 10 13 11 10 9 13 13 12 13 12 12 10 8 9 10 10 10 12 15 16 18 20 19 20 20 19 19 18 17 16 14 14 15 13 13 13
15 14 11 11 10 9 11 11 11 11 9 10 9 11 12 12 14 13 11 9 8 9 10 11 12 12 14 17 20 22 22 22 21 19 19 18 17 16 16 14 15 13 12
15 13 12 12 12 9 11 11 9 12 11 10 10 11 11 12 13 12 14 13 11 10 9 13 13 12 13 16 19 22 23 21 21 21 20 20 19 18 15 13 14 15 13
15 14 12 14 13 10 10 12 15 11 11 12 9 12 12 11 11 12 14 12 12 12 11 11 11 11 13 14 17 20 23 23 23 22 21 20 20 18 17 16 15 15 15
15 15 12 14 13 13 12 15 14 17 13 11 8 7 6 12 13 11 11 11 13 13 12 11 9 9 10 14 17 20 23 24 23 22 21 20 20 19 19 18 17 16 16
15 13 15 12 14 11 11 12 14 10 11 11 9 9 7 7 10 11 10 11 14 11 11 13 13 13 11 11 15 18 21 22 23 22 21 20 19 20 19 19 18 18 18
16 15 15 14 13 13 10 12 13 14 13 11 18 9 7 8 11 9 14 11 14 11 12 12 14 14 13 11 12 14 14 14 18 22 22 21 22 21 21 21 19 19 19
17 15 15 14 13 11 14 12 10 14 15 15 15 12 8 8 9 8 7 14 14 15 14 11 12 13 14 11 13 12 17 16 14 16 19 21 22 22 22 22 21 21 21
16 15 15 13 13 12 16 17 14 14 13 12 14 6 13 7 8 9 9 9 9 13 13 12 12 12 14 13 12 12 14 17 17 16 16 17 22 24 24 24 24 23 23
11 14 15 13 11 14 17 15 15 14 14 15 11 14 15 10 10 8 6 12 15 13 13 12 12 11 11 12 14 12 17 17 17 17 18 18 18 23 24 24 24 25 25
11 12 16 13 10 14 17 15 14 12 12 11 17 11 12 14 12 10 9 7 8 8 8 11 12 12 11 12 13 16 15 17 17 17 17 18 18 18 22 25 25 26 26
12 15 13 17 15 16 15 14 11 10 12 12 15 14 8 10 12 10 11 8 5 8 7 7 11 12 12 12 13 18 14 18 17 17 18 18 18 18 17 21 24 25 26
13 14 14 16 10 13 15 12 9 13 11 12 12 13 7 8 8 9 11 11 12 9 10 9 6 13 11 11 12 13 14 16 19 19 18 19 19 19 20 20 20 23 24
16 15 16 15 14 11 8 7 10 11 12 10 9 13 9 4 8 10 9 11 11 11 9 9 8 6 12 10 11 14 14 10 16 16 17 17 18 20 20 20 21 22 23
18 18 18 18 16 14 13 8 8 10 12 6 1 9 9 4 5 8 10 11 13 11 10 5 6 9 11 11 9 10 10 11 9 16 17 18 18 19 19 18 19 20 22
20 21 21 21 19 19 17 16 14 13 12 11 11 11 6 4 8 7 6 8 11 12 12 14 7 7 8 10 10 11 9 8 8 11 16 17 17 17 18 18 18 20 20
20 24 22 22 22 20 19 19 19 18 16 15 12 13 12 9 7 9 8 7 7 6 6 10 5 3 3 4 7 7 8 7 6 6 12 14 14 14 15 15 15 16 18
21 20 22 22 21 22 21 21 21 20 19 17 16 15 17 17 15 12 9 9 8 6 5 3 1 2 3 6 7 4 1 4 4 1 7 7 9 13 14 15 16 18 18
19 19 18 19 20 22 18 19 21 22 21 19 18 15 17 23 31 25 11 12 14 9 6 7 9 5 5 6 5 3 2 4 4 8 6 4 2 2 4 9 10 17 17
20 20 19 19 23 18 33 34 24 20 22 21 17 17 16 24 22 29 31 34 24 10 15 11 7 8 9 5 4 7 4 3 3 9 9 4 3 2 5 5 10 13 7
16 19 20 20 24 19 33 30 29 18 19 19 18 16 19 16 19 16 22 26 28 28 17 11 13 11 8 8 7 6 8 2 1 5 5 3 5 4 3 4 11 11 10
17 17 19 20 19 21 31 26 26 22 17 20 21 20 20 22 23 16 15 18 16 17 17 11 12 10 10 7 8 2 6 5 3 5 7 2 4 2 3 3 11 11 10
16 16 15 18 20 20 34 33 22 17 18 19 18 23 24 22 32 30 18 18 15 15 15 21 20 19 18 19 14 6 9 7 4 4 8 4 3 5 3 3 5 9 8
15 12 16 17 25 19 34 33 25 14 18 14 18 20 31 24 29 29 18 15 13 13 13 13 12 14 15 14 16 11 7 6 4 1 6 7 6 5 5 1 3 4 5
Wind_Direction
310 304 290 259 226 240 232 220 214 212 213 214 219 218 212 214 220 214 212 198 211 216 216 205 197 192 188 180 178 178 175 170 174 174 172 170 170 168 167 165 168 170 169
302 302 301 287 245 223 234 229 217 205 212 210 216 221 219 214 215 217 209 210 204 211 201 197 198 202 198 183 177 172 167 185 182 180 177 176 181 179 181 180 184 183 175
301 296 289 286 274 237 224 227 229 209 203 201 219 216 223 218 215 215 215 211 191 200 197 203 193 198 199 192 180 179 182 189 183 185 181 182 186 188 192 185 177 179 181
301 292 284 279 285 269 233 227 212 217 206 200 209 212 214 219 217 211 213 208 205 197 197 197 196 193 194 194 190 188 191 191 188 189 187 188 193 195 198 199 178 180 184
302 293 285 276 283 281 274 229 221 214 213 205 203 214 213 215 215 212 212 211 208 202 196 183 189 189 191 191 192 197 198 197 193 191 191 192 197 198 196 196 188 181 182
297 292 285 282 278 279 278 249 224 227 204 209 207 212 214 214 214 216 212 212 210 210 203 194 194 199 194 192 193 200 203 204 201 198 195 194 198 196 194 191 189 187 190
294 292 284 281 272 259 258 278 228 228 209 197 194 208 214 221 214 213 218 217 207 210 206 197 199 201 196 201 196 199 204 206 205 204 200 198 199 196 194 192 190 191 190
291 286 284 281 278 270 277 281 236 219 224 200 192 197 200 198 222 216 214 219 218 206 214 201 199 200 203 201 209 204 205 206 206 204 204 202 202 198 195 195 194 194 196
290 284 278 279 277 264 256 260 249 227 233 235 204 190 192 213 199 202 214 211 216 212 210 213 204 201 204 206 197 207 209 211 208 208 209 204 202 201 201 200 200 198 200
284 275 277 270 267 275 266 257 256 227 215 214 245 218 236 211 197 188 212 208 208 214 210 204 210 206 205 209 208 204 190 206 206 205 209 209 206 205 204 205 204 204 204
292 284 270 266 265 257 258 256 250 218 222 223 231 217 218 225 217 215 200 189 212 215 212 211 207 203 207 207 210 208 196 198 205 210 210 208 207 208 207 207 208 208 208
297 291 283 268 251 258 256 258 250 252 207 211 224 214 208 206 198 198 205 198 204 201 214 210 211 207 206 208 213 206 192 198 201 210 211 212 207 207 207 209 210 211 212
313 304 300 285 262 255 250 255 262 243 216 210 212 220 223 219 220 207 198 180 199 182 202 215 215 212 210 209 213 202 195 200 202 206 211 210 210 209 209 210 211 213 215
317 308 297 277 259 256 257 259 258 254 232 208 210 191 235 238 225 206 209 185 172 191 186 191 210 215 212 211 211 185 210 203 202 203 206 210 209 208 207 211 212 212 214
327 329 331 340 262 254 260 254 259 254 235 214 206 194 194 231 246 221 224 211 209 191 205 200 184 210 211 208 215 207 215 192 204 204 208 211 212 210 210 208 209 210 211
346 352 360 1 358 353 339 289 261 260 249 231 216 214 198 151 231 237 225 222 219 213 218 193 198 176 195 205 204 213 217 198 196 207 210 211 210 214 215 211 210 211 213
3 15 15 13 11 4 4 341 257 263 256 248 284 211 218 182 29 288 200 225 222 214 217 175 195 183 181 190 191 207 211 212 214 203 209 211 214 214 215 216 212 212 214
22 19 22 26 21 22 20 29 37 38 48 48 38 46 32 87 106 44 339 225 226 218 216 226 183 186 197 203 202 194 199 209 217 198 207 211 213 216 220 223 222 218 217
23 25 20 26 27 28 32 35 41 41 38 39 50 60 50 40 55 74 45 39 14 340 259 232 182 174 180 197 203 209 193 209 237 239 199 208 210 215 225 223 226 230 226
21 24 26 22 28 32 35 38 40 40 39 31 29 46 54 47 46 51 55 43 33 19 357 346 229 110 46 35 52 24 246 20 308 300 235 228 200 212 219 221 224 225 227
21 21 28 30 27 38 33 39 46 42 38 31 25 23 48 57 59 54 56 39 50 29 19 54 42 42 32 26 22 10 332 332 50 12 337 16 27 197 215 238 252 232 225
19 24 25 29 35 36 40 43 47 47 44 37 19 23 26 37 44 53 53 55 54 40 48 45 58 55 48 40 21 4 315 45 31 35 341 308 332 22 59 52 18 41 29
22 23 26 28 39 36 38 42 47 54 47 41 32 22 35 24 25 39 46 53 52 53 53 51 54 31 38 10 9 12 322 57 54 19 341 291 357 8 32 54 43 45 41
31 28 28 29 38 38 35 38 44 53 48 44 35 29 36 29 26 28 41 47 43 48 47 46 56 38 40 25 15 326 320 316 45 45 343 4 355 327 309 62 37 46 46
35 39 34 33 35 36 33 32 36 51 51 44 36 32 33 27 23 26 38 40 40 37 39 50 49 47 38 33 25 15 29 15 31 32 11 321 355 314 321 15 35 28 24
34 35 38 38 36 32 37 38 34 30 39 36 38 33 31 29 29 32 35 35 28 24 18 26 32 31 32 24 26 31 19 37 357 264 19 342 354 335 312 78 4 9 353